Theta_e
298 296 295 295 294 293 293 292 293 293 292 292 292 292 292 291 291 291 291 291 291 291 291 291 291 291 291 291 291 291 292 292 292 293 292 291 292 293 292 291 291 291 290
297 294 293 293 292 292 291 291 291 291 290 290 290 290 290 290 290 290 290 290 290 290 290 290 290 290 290 290 290 290 289 289 290 290 289 290 293 293 290 290 290 290 290
296 293 291 291 291 290 290 290 290 289 289 289 290 290 290 289 289 289 289 289 289 290 290 289 289 289 289 289 289 289 288 288 288 288 288 288 289 288 289 289 289 288 288
295 292 291 289 289 289 289 288 288 288 289 290 290 290 289 289 288 289 288 289 289 289 289 289 289 288 288 288 288 288 287 287 287 287 287 287 286 287 287 288 288 287 287
295 291 290 289 288 288 289 289 289 288 288 288 288 287 287 288 288 288 288 288 288 288 288 288 288 288 288 288 287 287 287 286 286 285 286 286 286 286 285 286 287 287 287
294 292 290 289 287 287 287 287 287 287 287 287 287 287 287 288 287 287 287 287 287 287 288 288 288 288 287 287 287 286 286 286 285 285 284 284 285 285 285 285 285 285 285
293 291 289 287 287 286 286 286 286 286 286 286 286 286 286 286 286 286 286 286 286 287 288 287 287 287 287 286 286 285 285 285 285 284 284 284 284 283 284 283 283 283 284
293 290 289 287 286 286 286 285 285 285 285 285 285 286 286 285 285 285 285 285 285 286 286 287 287 286 286 286 285 285 284 284 284 284 283 283 283 282 282 282 282 282 282
292 290 289 287 286 286 285 285 285 284 284 285 285 285 285 284 285 285 284 285 285 286 286 286 286 286 285 285 284 284 283 283 282 282 282 282 282 282 281 281 281 281 281
292 290 289 287 286 286 285 284 284 284 283 284 284 284 284 284 284 284 284 285 285 285 285 285 285 284 284 283 282 282 282 282 281 281 281 280 280 280 280 280 280 280 281
290 289 288 287 285 285 284 284 283 283 283 283 283 283 283 283 284 284 284 284 285 284 284 283 283 282 282 282 281 281 281 280 280 280 279 279 279 279 279 279 279 279 279
287 287 286 285 284 284 283 283 282 282 282 282 282 282 283 283 283 284 284 284 283 282 282 281 281 281 281 280 280 280 279 279 278 278 278 278 278 278 278 278 278 278 278
285 285 284 284 283 283 282 282 281 281 281 281 281 282 282 282 283 283 282 281 281 280 280 279 279 279 279 278 278 278 277 277 277 277 277 277 277 277 277 277 277 277 278
282 283 283 283 282 282 282 281 281 281 281 281 281 281 282 282 281 280 280 279 279 278 278 278 278 277 277 276 276 276 276 276 276 276 276 276 276 276 276 276 277 277 277
282 281 281 280 280 280 280 280 280 280 280 281 281 281 280 280 279 279 278 278 277 277 277 276 276 275 275 275 275 275 275 275 275 275 275 275 275 276 277 278 278 279 279
282 281 281 280 279 279 279 279 279 279 278 279 279 279 279 278 278 277 277 276 276 275 275 274 274 274 274 274 275 276 275 275 275 275 275 275 275 276 277 278 279 280 280
280 280 279 279 279 279 278 279 278 278 278 277 277 277 277 277 276 276 275 275 274 274 273 273 273 273 273 273 275 275 276 275 275 275 274 274 275 275 276 276 277 278 279
277 277 276 276 276 276 276 276 276 276 276 276 276 275 275 275 275 274 274 273 273 272 272 272 272 272 272 273 274 275 275 275 275 274 274 274 273 274 274 275 275 276 276
276 276 276 276 276 276 276 276 275 275 275 275 275 275 275 274 273 273 273 273 272 273 272 272 272 272 272 272 273 274 274 274 274 273 273 273 273 273 275 275 276 276 276
276 276 276 275 275 275 274 274 274 274 274 275 275 274 274 274 274 273 273 272 272 273 272 272 272 272 271 272 273 274 273 273 273 273 273 273 274 274 275 276 276 276 276
274 275 275 274 274 274 274 274 273 273 273 273 273 273 273 273 273 272 272 272 272 272 272 272 272 271 271 271 271 272 273 273 273 273 273 272 273 274 274 276 276 276 277
274 274 274 274 274 274 273 273 273 273 272 272 272 272 272 272 271 271 271 271 271 271 271 271 271 271 271 271 271 272 273 273 273 273 273 272 273 274 274 275 276 276 277
273 273 273 273 273 273 273 273 273 272 272 272 271 271 271 271 270 270 270 270 270 270 270 270 270 271 271 271 271 271 272 273 274 273 273 274 274 275 275 276 276 276 277
271 271 271 271 271 272 272 272 272 272 272 271 271 270 270 270 270 270 270 269 269 269 269 269 269 270 270 269 270 270 270 270 271 272 272 272 273 273 274 275 275 276 276
270 271 271 271 270 270 270 271 271 271 271 271 270 270 270 269 269 269 269 268 269 268 268 268 268 268 268 269 269 269 269 270 270 270 271 271 272 272 273 273 274 274 274
269 269 268 269 269 270 270 270 271 270 270 270 270 269 269 269 269 269 269 269 269 270 270 270 270 270 270 269 270 270 272 272 273 273 273 273 273 273 273 274 275 275 275
Wind_Speed
28 28 27 28 28 26 26 27 27 25 23 23 22 21 20 19 18 16 14 12 11 9 7 6 5 5 6 8 10 11 12 12 16 17 16 10 12 10 14 19 15 14 14
31 29 29 28 29 28 27 27 26 25 23 21 21 20 20 19 17 16 14 12 10 8 5 5 5 6 7 8 10 12 14 16 18 19 13 6 2 6 18 13 15 18 17
37 33 31 29 29 30 29 28 27 28 28 26 24 22 19 18 17 16 14 12 9 7 4 3 3 5 6 8 10 12 13 13 15 15 12 5 3 17 4 9 15 17 21
34 34 32 28 27 27 27 26 27 28 27 24 21 18 19 20 19 17 15 13 10 6 4 1 2 4 7 8 10 11 11 11 11 11 10 7 9 7 9 13 17 17 17
35 34 32 29 26 27 28 27 26 26 25 23 22 20 20 20 18 17 15 12 9 5 2 2 4 6 8 10 11 11 11 10 9 9 9 9 10 12 15 22 21 23 24
33 32 30 28 27 27 26 27 27 26 25 24 23 24 23 20 20 17 15 12 9 6 4 4 6 8 10 11 12 13 12 12 11 11 11 12 13 13 15 22 27 28 26
33 30 29 30 27 27 25 25 24 25 25 25 25 23 21 18 17 16 15 12 9 7 5 6 8 11 12 14 14 14 14 14 15 15 15 16 17 19 21 24 27 28 29
30 29 28 29 29 26 24 23 24 24 24 25 25 24 22 22 20 18 16 14 11 9 7 9 11 13 15 16 16 16 16 17 18 18 18 19 20 20 21 23 25 30 30
26 27 28 28 28 24 23 23 23 23 23 24 23 22 22 20 19 17 15 13 11 10 10 12 14 16 17 17 18 19 19 20 21 22 22 22 22 22 23 23 24 25 27
21 25 27 28 25 24 23 22 22 23 23 22 21 20 20 19 18 16 14 13 12 13 14 15 17 17 18 19 21 22 23 23 23 23 23 23 23 24 24 24 24 24 28
19 23 26 25 24 24 24 23 23 22 22 21 21 20 19 17 16 15 14 14 15 16 17 18 19 20 21 22 24 24 24 24 23 23 24 24 23 25 25 26 26 28 28
13 17 21 22 23 24 24 22 20 20 20 19 19 18 18 17 16 16 16 16 17 18 19 20 22 23 24 24 25 24 24 24 24 24 24 25 25 25 24 25 26 26 27
12 14 17 20 21 22 22 21 21 20 18 19 18 17 16 16 16 17 17 19 20 21 22 23 24 25 26 24 24 24 24 25 25 25 25 25 24 25 24 25 25 26 26
6 8 10 14 16 18 18 19 19 18 18 17 17 17 17 18 18 19 20 22 23 24 25 26 27 28 25 24 24 24 25 25 25 25 25 24 24 24 24 25 26 26 27
6 4 2 3 7 11 13 14 14 15 16 17 17 17 18 20 22 23 24 25 26 27 28 28 27 26 26 25 24 23 23 24 25 25 25 24 23 22 23 25 28 29 30
11 9 6 3 2 1 3 5 8 11 15 18 20 22 24 26 27 28 28 28 28 28 28 28 28 28 28 25 20 21 24 27 28 29 28 29 27 27 26 28 29 30 33
12 9 8 8 9 10 13 15 18 21 24 26 28 29 30 32 33 32 30 30 31 31 31 30 30 31 30 26 23 23 26 29 31 32 31 30 27 26 27 28 27 29 30
16 18 19 23 24 25 26 26 27 29 31 33 33 34 35 36 35 34 34 34 33 34 34 34 34 33 32 26 24 24 27 30 32 34 34 34 34 32 29 29 30 32 33
24 26 27 26 26 26 27 29 31 31 32 35 36 36 36 37 37 38 38 37 37 36 36 36 35 35 34 29 25 25 28 32 34 34 34 33 31 30 27 29 33 35 36
25 26 27 29 27 28 29 31 32 33 35 35 35 35 35 37 38 38 38 38 38 38 37 37 36 36 33 28 26 26 29 32 32 32 32 31 31 31 30 31 34 39 40
27 27 27 29 29 28 27 31 34 35 31 31 33 34 34 35 35 36 37 38 37 37 37 38 38 37 36 35 30 28 30 32 32 32 32 34 31 30 30 30 33 36 36
29 28 29 30 29 28 29 32 35 35 35 33 30 30 29 30 32 33 34 34 34 35 36 36 38 38 37 35 32 30 31 32 35 36 37 37 31 31 32 32 33 33 34
29 29 30 32 31 30 28 31 34 33 33 34 36 33 30 28 29 30 31 32 32 34 35 35 37 38 36 34 31 29 29 30 32 35 35 33 32 32 34 34 33 33 36
32 31 31 34 35 32 32 32 33 30 29 31 33 34 32 30 28 27 28 30 32 33 35 36 36 35 33 32 30 28 27 27 29 32 33 34 32 31 31 31 30 31 31
33 34 33 26 30 32 32 31 32 32 32 31 32 32 34 33 30 29 29 30 31 29 30 31 29 29 30 28 25 24 24 22 22 21 22 24 25 26 28 30 28 30 29
32 33 39 32 36 34 32 30 29 30 31 32 31 29 28 29 28 28 28 25 26 27 27 28 31 32 31 26 23 23 23 25 27 30 34 34 34 35 34 30 30 30 26
Wind_Direction
187 197 199 195 191 191 188 188 186 183 182 180 179 179 177 174 171 167 162 157 151 144 133 118 96 76 57 49 40 30 20 26 21 21 37 34 356 7 351 339 328 326 332
186 193 196 195 193 189 189 189 187 181 175 176 177 181 179 174 173 169 165 160 155 145 127 98 71 50 40 34 27 22 20 8 13 21 28 33 198 342 326 337 331 327 329
182 188 192 197 192 192 191 191 187 179 175 179 187 187 180 176 175 172 171 166 161 154 139 106 60 36 23 16 13 9 8 8 4 10 21 3 335 323 263 310 312 320 315
184 187 190 192 192 192 190 191 189 188 190 192 195 192 188 180 182 181 176 174 169 165 153 110 28 8 3 1 356 355 352 353 354 349 349 333 308 316 300 288 298 300 304
180 178 184 190 192 196 197 199 198 195 193 190 187 178 182 192 189 183 182 179 179 181 199 292 330 338 343 342 340 339 336 335 332 325 314 304 291 292 281 290 301 299 299
179 183 192 192 187 197 197 196 195 193 192 191 188 188 198 197 190 188 189 191 192 202 233 282 311 320 325 327 327 326 322 319 316 308 299 293 288 283 272 281 289 295 299
177 182 185 184 187 195 196 195 194 192 191 191 189 193 196 192 190 189 196 198 207 222 261 293 308 312 314 314 314 313 310 307 303 299 292 281 277 279 280 282 289 293 295
174 177 182 185 187 195 197 194 192 191 192 192 193 195 195 192 197 198 200 202 209 227 258 284 296 300 302 302 302 301 299 295 292 288 284 280 278 276 277 279 285 290 292
169 177 180 183 187 193 193 192 196 196 196 198 199 199 201 202 205 207 209 215 225 243 263 280 288 291 291 293 292 291 290 287 284 282 279 277 277 275 274 274 276 279 285
166 174 179 180 186 189 189 194 201 201 200 203 203 205 207 210 214 216 221 231 245 257 270 278 282 284 285 287 287 288 286 282 280 278 276 274 273 271 269 267 266 267 272
153 168 172 177 182 186 190 195 204 207 206 205 208 213 214 217 223 231 241 251 261 270 276 279 281 283 284 284 282 281 279 276 275 275 276 276 276 273 272 272 270 267 267
157 163 172 176 180 186 192 199 203 208 210 211 214 217 223 228 236 245 254 262 269 274 276 279 281 281 282 279 276 274 273 273 274 276 275 276 276 273 272 271 272 273 273
158 170 177 180 186 195 201 204 207 209 212 218 222 226 235 245 254 261 266 271 274 275 278 281 281 280 277 275 274 274 275 274 274 274 273 274 273 272 272 272 271 272 271
146 181 198 204 206 209 211 211 215 220 227 234 239 245 252 258 263 268 271 273 276 278 281 281 279 278 277 276 276 275 275 275 274 273 272 271 270 272 274 273 274 275 273
103 115 174 229 223 221 223 229 237 245 250 253 258 261 264 267 270 270 271 272 275 279 281 280 281 277 277 277 278 278 277 275 273 272 270 270 270 273 275 279 281 278 276
83 79 74 47 25 271 254 258 263 269 273 276 275 272 271 271 272 273 273 275 277 278 276 275 276 276 276 276 266 266 271 277 279 278 276 275 273 267 266 265 265 269 275
27 14 351 330 313 309 308 300 292 283 277 273 271 271 270 270 271 273 275 277 277 276 274 274 273 273 274 272 266 266 266 269 272 275 277 276 273 272 266 264 266 263 264
332 321 311 305 300 295 290 287 284 282 280 277 276 274 273 273 274 274 275 276 277 277 276 275 274 273 273 268 266 266 267 268 269 271 274 274 275 274 275 277 274 273 272
317 312 311 308 302 295 293 291 286 284 281 279 279 278 277 277 275 273 274 276 279 278 275 275 274 273 273 270 263 264 264 266 268 269 271 274 273 272 272 271 271 272 270
312 310 309 306 302 304 302 295 289 285 281 280 281 281 279 276 274 273 273 275 275 273 272 272 271 272 272 269 262 263 265 267 268 269 269 269 268 272 275 272 271 271 273
312 310 308 305 303 302 298 293 297 293 295 288 281 276 274 274 273 273 272 272 272 271 270 270 270 269 269 268 263 261 261 263 267 267 269 271 272 273 273 270 269 271 276
314 312 308 305 304 303 299 295 292 299 300 299 295 288 282 275 272 271 271 271 270 269 268 268 268 268 269 268 265 259 259 262 265 268 273 275 274 273 273 270 269 270 271
314 312 308 305 303 301 297 292 293 297 296 293 294 295 292 283 275 271 271 271 269 267 268 268 270 272 273 273 270 263 260 261 262 265 269 272 274 275 273 270 270 271 272
310 308 305 304 303 302 299 295 295 293 290 286 286 288 289 290 285 280 274 270 267 266 268 270 271 273 274 273 273 271 266 257 255 256 257 261 268 270 273 271 267 264 269
316 312 300 301 308 308 302 298 292 289 284 280 278 279 282 284 281 275 274 272 272 272 270 270 273 274 276 279 277 272 274 273 273 275 275 273 275 274 277 278 279 271 269
308 302 306 307 306 308 306 301 293 289 287 284 282 279 276 277 277 275 278 269 264 270 262 265 269 277 280 274 268 264 262 263 265 262 263 268 273 274 274 274 283 270 263